Time,TemperatureF,DewpointF,PressureIn,WindDirection,WindDirectionDegrees,WindSpeedMPH,WindSpeedGustMPH,Humidity,HourlyPrecipIn,Conditions,Clouds,dailyrainin,SoftwareType,DateUTC
2013-02-15 00:02:00,59.0,58.0,30.00,ESE,110,2.0,6.0,98,0.02,,,0.46,,2013-02-15 05:02:00,
2013-02-15 00:12:00,59.0,58.0,30.00,ESE,110,2.0,6.0,98,0.02,,,0.46,,2013-02-15 05:12:00,
2013-02-15 00:22:00,59.0,58.0,29.99,SE,125,3.0,7.0,98,0.02,,,0.46,,2013-02-15 05:22:00,
2013-02-15 00:32:00,59.0,58.0,30.01,NNW,348,0.0,6.0,98,0.00,,,0.46,,2013-02-15 05:32:00,
2013-02-15 00:42:00,59.0,58.0,30.01,NNW,348,0.0,6.0,98,0.00,,,0.46,,2013-02-15 05:42:00,
2013-02-15 00:52:00,59.0,58.0,29.99,North,5,0.0,2.0,98,0.00,,,0.46,,2013-02-15 05:52:00,
2013-02-15 01:02:00,59.0,58.0,30.01,West,281,0.0,3.0,98,0.00,,,0.46,,2013-02-15 06:02:00,
2013-02-15 01:11:00,59.0,58.0,30.01,West,281,0.0,3.0,98,0.00,,,0.46,,2013-02-15 06:11:00,
2013-02-15 01:22:00,59.0,58.0,30.00,SSE,163,0.0,3.0,98,0.01,,,0.47,,2013-02-15 06:22:00,
2013-02-15 01:32:00,59.0,58.0,30.02,WSW,242,0.0,0.0,98,0.01,,,0.47,,2013-02-15 06:32:00,
2013-02-15 01:42:00,59.0,58.0,30.02,WSW,242,0.0,0.0,98,0.01,,,0.47,,2013-02-15 06:42:00,
2013-02-15 01:52:00,59.0,58.0,30.02,WSW,242,0.0,0.0,98,0.01,,,0.47,,2013-02-15 06:52:00,
2013-02-15 02:01:00,59.0,58.0,30.02,WSW,242,0.0,0.0,98,0.03,,,0.49,,2013-02-15 07:01:00,
2013-02-15 02:11:00,59.0,58.0,30.02,WSW,242,0.0,0.0,98,0.03,,,0.49,,2013-02-15 07:11:00,
2013-02-15 02:21:00,59.0,58.0,30.05,West,280,3.0,6.0,98,0.03,,,0.50,,2013-02-15 07:21:00,
2013-02-15 02:32:00,59.0,58.0,30.05,WNW,301,2.0,5.0,98,0.04,,,0.51,,2013-02-15 07:32:00,
2013-02-15 02:42:00,59.0,58.0,30.05,WNW,301,2.0,5.0,98,0.04,,,0.51,,2013-02-15 07:42:00,
2013-02-15 02:52:00,59.0,58.0,30.02,NNW,340,1.0,4.0,98,0.03,,,0.51,,2013-02-15 07:52:00,
2013-02-15 03:01:00,59.0,58.0,30.00,North,11,3.0,7.0,98,0.02,,,0.52,,2013-02-15 08:01:00,
2013-02-15 03:11:00,59.0,58.0,30.00,North,11,3.0,7.0,98,0.02,,,0.52,,2013-02-15 08:11:00,
2013-02-15 03:21:00,58.0,57.0,30.01,NNE,23,1.0,5.0,98,0.02,,,0.52,,2013-02-15 08:21:00,
2013-02-15 03:32:00,58.0,57.0,30.02,North,5,3.0,7.0,98,0.01,,,0.52,,2013-02-15 08:32:00,
2013-02-15 03:42:00,58.0,57.0,30.02,North,5,3.0,7.0,98,0.01,,,0.52,,2013-02-15 08:42:00,
2013-02-15 03:53:00,57.0,56.0,30.01,NE,43,1.0,7.0,98,0.01,,,0.52,,2013-02-15 08:53:00,
2013-02-15 04:02:00,57.0,56.0,30.00,NNE,26,2.0,5.0,98,0.00,,,0.52,,2013-02-15 09:02:00,
2013-02-15 04:12:00,57.0,56.0,30.00,NNE,26,2.0,5.0,98,0.00,,,0.52,,2013-02-15 09:12:00,
2013-02-15 04:22:00,56.0,55.0,30.01,NE,51,1.0,5.0,98,0.00,,,0.52,,2013-02-15 09:22:00,
2013-02-15 04:32:00,56.0,55.0,30.03,NNE,17,2.0,6.0,98,0.01,,,0.53,,2013-02-15 09:32:00,
2013-02-15 04:42:00,56.0,55.0,30.03,NNE,17,2.0,6.0,98,0.01,,,0.53,,2013-02-15 09:42:00,
2013-02-15 04:52:00,56.0,55.0,30.03,NNW,347,2.0,7.0,98,0.01,,,0.53,,2013-02-15 09:52:00,
2013-02-15 05:01:00,56.0,55.0,30.03,NNW,331,1.0,5.0,98,0.01,,,0.53,,2013-02-15 10:01:00,
2013-02-15 05:11:00,56.0,55.0,30.03,NNW,331,1.0,5.0,98,0.01,,,0.53,,2013-02-15 10:11:00,
2013-02-15 05:21:00,56.0,55.0,30.03,North,360,2.0,6.0,98,0.01,,,0.53,,2013-02-15 10:21:00,
2013-02-15 05:32:00,56.0,55.0,30.03,NNE,22,1.0,5.0,98,0.00,,,0.53,,2013-02-15 10:32:00,
2013-02-15 05:42:00,56.0,55.0,30.03,NNE,22,1.0,5.0,98,0.00,,,0.53,,2013-02-15 10:42:00,
2013-02-15 05:52:00,56.0,55.0,30.03,NE,47,1.0,5.0,98,0.00,,,0.53,,2013-02-15 10:52:00,
2013-02-15 06:01:00,56.0,55.0,30.03,NE,49,3.0,7.0,98,0.00,,,0.53,,2013-02-15 11:01:00,
2013-02-15 06:11:00,56.0,55.0,30.03,NE,49,3.0,7.0,98,0.00,,,0.53,,2013-02-15 11:11:00,
2013-02-15 06:23:00,55.0,54.0,30.03,NNE,13,2.0,9.0,98,0.00,,,0.53,,2013-02-15 11:23:00,
2013-02-15 06:32:00,55.0,54.0,30.03,NNE,22,1.0,7.0,98,0.00,,,0.53,,2013-02-15 11:32:00,
2013-02-15 06:42:00,55.0,54.0,30.03,NNE,22,1.0,7.0,98,0.00,,,0.53,,2013-02-15 11:42:00,
2013-02-15 06:52:00,55.0,54.0,30.03,NNE,32,2.0,7.0,98,0.00,,,0.53,,2013-02-15 11:52:00,
2013-02-15 07:02:00,55.0,54.0,30.04,NNE,28,2.0,5.0,98,0.00,,,0.53,,2013-02-15 12:02:00,
2013-02-15 07:11:00,55.0,54.0,30.04,NNE,28,2.0,5.0,98,0.00,,,0.53,,2013-02-15 12:11:00,
2013-02-15 07:22:00,55.0,54.0,30.04,NE,40,1.0,8.0,98,0.00,,,0.53,,2013-02-15 12:22:00,
2013-02-15 07:32:00,55.0,54.0,30.05,NNW,338,1.0,7.0,98,0.00,,,0.53,,2013-02-15 12:32:00,
2013-02-15 07:42:00,55.0,54.0,30.05,NNW,338,1.0,7.0,98,0.00,,,0.53,,2013-02-15 12:42:00,
2013-02-15 07:52:00,56.0,55.0,30.06,North,355,1.0,5.0,98,0.00,,,0.53,,2013-02-15 12:52:00,
2013-02-15 08:02:00,56.0,55.0,30.06,NNE,32,0.0,4.0,98,0.00,,,0.53,,2013-02-15 13:02:00,
2013-02-15 08:11:00,56.0,55.0,30.06,NNE,32,0.0,4.0,98,0.00,,,0.53,,2013-02-15 13:11:00,
2013-02-15 08:22:00,56.0,55.0,30.05,NNW,346,3.0,8.0,98,0.00,,,0.53,,2013-02-15 13:22:00,
2013-02-15 08:32:00,56.0,55.0,30.05,NNE,13,2.0,7.0,98,0.00,,,0.53,,2013-02-15 13:32:00,
2013-02-15 08:42:00,56.0,55.0,30.05,NNE,13,2.0,7.0,98,0.00,,,0.53,,2013-02-15 13:42:00,
2013-02-15 08:52:00,56.0,55.0,30.08,NNW,346,3.0,7.0,98,0.00,,,0.53,,2013-02-15 13:52:00,
2013-02-15 09:01:00,56.0,55.0,30.09,NNE,24,1.0,6.0,98,0.00,,,0.53,,2013-02-15 14:01:00,
2013-02-15 09:12:00,56.0,55.0,30.09,NNE,24,1.0,6.0,98,0.00,,,0.53,,2013-02-15 14:12:00,
2013-02-15 09:22:00,56.0,55.0,30.06,East,83,2.0,10.0,98,0.00,,,0.53,,2013-02-15 14:22:00,
2013-02-15 09:32:00,57.0,56.0,30.09,North,355,2.0,6.0,98,0.01,,,0.54,,2013-02-15 14:32:00,
2013-02-15 09:42:00,57.0,56.0,30.09,North,355,2.0,6.0,98,0.01,,,0.54,,2013-02-15 14:42:00,
2013-02-15 09:52:00,56.0,55.0,30.09,North,11,2.0,8.0,98,0.01,,,0.54,,2013-02-15 14:52:00,
2013-02-15 10:02:00,56.0,55.0,30.09,NE,36,2.0,6.0,98,0.01,,,0.54,,2013-02-15 15:02:00,
2013-02-15 10:11:00,56.0,55.0,30.09,NE,36,2.0,6.0,98,0.01,,,0.54,,2013-02-15 15:11:00,
2013-02-15 10:22:00,56.0,55.0,30.09,ENE,60,2.0,6.0,98,0.01,,,0.53,,2013-02-15 15:22:00,
2013-02-15 10:32:00,56.0,55.0,30.09,North,9,2.0,8.0,98,0.00,,,0.53,,2013-02-15 15:32:00,
2013-02-15 10:42:00,56.0,55.0,30.09,North,9,2.0,8.0,98,0.00,,,0.53,,2013-02-15 15:42:00,
2013-02-15 10:52:00,56.0,55.0,30.10,NNW,328,3.0,8.0,97,0.00,,,0.53,,2013-02-15 15:52:00,
2013-02-15 11:02:00,56.0,55.0,30.10,North,10,1.0,8.0,98,0.00,,,0.53,,2013-02-15 16:02:00,
2013-02-15 11:11:00,56.0,55.0,30.10,North,10,1.0,8.0,98,0.00,,,0.53,,2013-02-15 16:11:00,
2013-02-15 11:22:00,56.0,55.0,30.10,NW,316,2.0,7.0,97,0.00,,,0.49,,2013-02-15 16:22:00,
2013-02-15 11:32:00,56.0,55.0,30.09,North,9,3.0,9.0,97,0.00,,,0.49,,2013-02-15 16:32:00,
2013-02-15 11:42:00,56.0,55.0,30.09,North,9,3.0,9.0,97,0.00,,,0.49,,2013-02-15 16:42:00,
2013-02-15 11:52:00,56.0,55.0,30.09,ENE,59,2.0,5.0,97,0.00,,,0.49,,2013-02-15 16:52:00,
2013-02-15 12:01:00,56.0,55.0,30.09,ENE,59,2.0,5.0,97,0.00,,,0.49,,2013-02-15 17:01:00,
2013-02-15 12:11:00,56.0,55.0,30.09,ENE,59,2.0,5.0,97,0.00,,,0.49,,2013-02-15 17:11:00,
2013-02-15 12:21:00,58.0,57.0,30.09,NNE,15,0.0,5.0,95,0.00,,,0.49,,2013-02-15 17:21:00,
2013-02-15 12:32:00,58.0,56.0,30.08,NNE,24,1.0,5.0,94,0.00,,,0.49,,2013-02-15 17:32:00,
2013-02-15 12:42:00,58.0,56.0,30.08,NNE,24,1.0,5.0,94,0.00,,,0.49,,2013-02-15 17:42:00,
2013-02-15 12:52:00,58.0,56.0,30.07,NE,54,1.0,5.0,93,0.00,,,0.49,,2013-02-15 17:52:00,
2013-02-15 13:01:00,59.0,57.0,30.06,NNE,30,2.0,4.0,94,0.00,,,0.49,,2013-02-15 18:01:00,
2013-02-15 13:12:00,59.0,57.0,30.06,NNE,30,2.0,4.0,94,0.00,,,0.49,,2013-02-15 18:12:00,
2013-02-15 13:22:00,60.0,57.0,30.06,West,270,2.0,5.0,91,0.00,,,0.43,,2013-02-15 18:22:00,
2013-02-15 13:32:00,62.0,58.0,30.05,ESE,111,0.0,4.0,88,0.00,,,0.43,,2013-02-15 18:32:00,
2013-02-15 13:42:00,62.0,58.0,30.05,ESE,111,0.0,4.0,88,0.00,,,0.43,,2013-02-15 18:42:00,
2013-02-15 13:53:00,64.0,60.0,30.03,NE,40,2.0,5.0,86,0.00,,,0.43,,2013-02-15 18:53:00,
2013-02-15 14:02:00,64.0,60.0,30.03,NE,53,0.0,4.0,86,0.00,,,0.43,,2013-02-15 19:02:00,
2013-02-15 14:11:00,64.0,60.0,30.03,NE,53,0.0,4.0,86,0.00,,,0.43,,2013-02-15 19:11:00,
2013-02-15 14:22:00,66.0,60.0,30.02,NW,315,1.0,4.0,81,0.00,,,0.33,,2013-02-15 19:22:00,
2013-02-15 14:32:00,65.0,60.0,30.01,North,360,1.0,3.0,84,0.00,,,0.33,,2013-02-15 19:32:00,
2013-02-15 14:42:00,65.0,60.0,30.01,North,360,1.0,3.0,84,0.00,,,0.33,,2013-02-15 19:42:00,
2013-02-15 14:52:00,68.0,62.0,30.01,WNW,284,0.0,3.0,80,0.00,,,0.33,,2013-02-15 19:52:00,
2013-02-15 15:01:00,67.0,61.0,30.00,ESE,105,1.0,5.0,82,0.00,,,0.33,,2013-02-15 20:01:00,
2013-02-15 15:11:00,67.0,61.0,30.00,ESE,105,1.0,5.0,82,0.00,,,0.33,,2013-02-15 20:11:00,
2013-02-15 15:21:00,66.0,59.0,30.00,SSE,148,1.0,6.0,79,0.00,,,0.28,,2013-02-15 20:21:00,
2013-02-15 15:32:00,66.0,59.0,29.99,ENE,59,0.0,3.0,79,0.00,,,0.28,,2013-02-15 20:32:00,
2013-02-15 15:42:00,66.0,59.0,29.99,ENE,59,0.0,3.0,79,0.00,,,0.28,,2013-02-15 20:42:00,
2013-02-15 15:52:00,69.0,61.0,29.98,SSW,205,0.0,4.0,77,0.00,,,0.28,,2013-02-15 20:52:00,
2013-02-15 16:02:00,69.0,60.0,29.99,SW,236,2.0,7.0,73,0.00,,,0.28,,2013-02-15 21:02:00,
2013-02-15 16:11:00,69.0,60.0,29.99,SW,236,2.0,7.0,73,0.00,,,0.28,,2013-02-15 21:11:00,
2013-02-15 16:22:00,69.0,59.0,29.99,SSW,213,4.0,7.0,71,0.00,,,0.24,,2013-02-15 21:22:00,
2013-02-15 16:32:00,67.0,59.0,29.99,WSW,246,1.0,6.0,75,0.00,,,0.24,,2013-02-15 21:32:00,
2013-02-15 16:42:00,67.0,59.0,29.99,WSW,246,1.0,6.0,75,0.00,,,0.24,,2013-02-15 21:42:00,
2013-02-15 16:52:00,67.0,59.0,29.98,SW,216,0.0,5.0,75,0.00,,,0.24,,2013-02-15 21:52:00,
2013-02-15 17:02:00,67.0,58.0,29.98,West,260,1.0,4.0,74,0.00,,,0.24,,2013-02-15 22:02:00,
2013-02-15 17:11:00,67.0,58.0,29.98,West,260,1.0,4.0,74,0.00,,,0.24,,2013-02-15 22:11:00,
2013-02-15 17:22:00,67.0,58.0,29.98,WSW,250,0.0,3.0,74,0.00,,,0.17,,2013-02-15 22:22:00,
2013-02-15 17:32:00,67.0,58.0,29.97,South,186,0.0,2.0,72,0.00,,,0.17,,2013-02-15 22:32:00,
2013-02-15 17:42:00,67.0,58.0,29.97,South,186,0.0,2.0,72,0.00,,,0.17,,2013-02-15 22:42:00,
2013-02-15 17:52:00,67.0,58.0,29.98,SSW,194,1.0,3.0,72,0.00,,,0.17,,2013-02-15 22:52:00,
2013-02-15 18:02:00,66.0,58.0,29.98,WSW,254,0.0,4.0,75,0.00,,,0.17,,2013-02-15 23:02:00,
2013-02-15 18:11:00,66.0,58.0,29.98,WSW,254,0.0,4.0,75,0.00,,,0.17,,2013-02-15 23:11:00,
2013-02-15 18:21:00,64.0,58.0,29.98,West,270,0.0,2.0,82,0.00,,,0.12,,2013-02-15 23:21:00,
2013-02-15 18:32:00,62.0,58.0,29.98,West,270,0.0,0.0,86,0.00,,,0.12,,2013-02-15 23:32:00,
2013-02-15 18:42:00,62.0,58.0,29.98,West,270,0.0,0.0,86,0.00,,,0.12,,2013-02-15 23:42:00,
2013-02-15 18:52:00,60.0,56.0,29.98,West,270,0.0,0.0,88,0.00,,,0.12,,2013-02-15 23:52:00,
2013-02-15 19:02:00,59.0,56.0,29.98,West,270,0.0,0.0,91,0.00,,,0.12,,2013-02-16 00:02:00,
2013-02-15 19:11:00,59.0,56.0,29.98,West,270,0.0,0.0,91,0.00,,,0.12,,2013-02-16 00:11:00,
2013-02-15 19:22:00,58.0,56.0,29.98,WNW,284,1.0,3.0,93,0.00,,,0.11,,2013-02-16 00:22:00,
2013-02-15 19:32:00,58.0,56.0,29.98,WNW,286,0.0,2.0,93,0.00,,,0.11,,2013-02-16 00:32:00,
2013-02-15 19:42:00,58.0,56.0,29.98,WNW,286,0.0,2.0,93,0.00,,,0.11,,2013-02-16 00:42:00,
2013-02-15 19:52:00,57.0,55.0,29.98,WNW,286,0.0,1.0,94,0.00,,,0.11,,2013-02-16 00:52:00,
2013-02-15 20:02:00,56.0,54.0,29.98,WNW,295,0.0,2.0,94,0.00,,,0.11,,2013-02-16 01:02:00,
2013-02-15 20:11:00,56.0,54.0,29.98,WNW,295,0.0,2.0,94,0.00,,,0.11,,2013-02-16 01:11:00,
2013-02-15 20:21:00,56.0,54.0,29.98,WNW,295,0.0,1.0,94,0.00,,,0.10,,2013-02-16 01:21:00,
2013-02-15 20:32:00,55.0,53.0,29.99,WNW,295,0.0,2.0,94,0.00,,,0.10,,2013-02-16 01:32:00,
2013-02-15 20:42:00,55.0,53.0,29.99,WNW,295,0.0,2.0,94,0.00,,,0.10,,2013-02-16 01:42:00,
2013-02-15 20:52:00,55.0,54.0,29.99,WNW,295,0.0,0.0,95,0.00,,,0.10,,2013-02-16 01:52:00,
2013-02-15 21:01:00,54.0,53.0,29.99,WNW,295,1.0,2.0,95,0.00,,,0.10,,2013-02-16 02:01:00,
2013-02-15 21:11:00,54.0,53.0,29.99,WNW,295,1.0,2.0,95,0.00,,,0.10,,2013-02-16 02:11:00,
2013-02-15 21:22:00,54.0,53.0,29.99,WNW,302,1.0,2.0,95,0.00,,,0.10,,2013-02-16 02:22:00,
2013-02-15 21:32:00,54.0,53.0,30.00,WNW,292,1.0,4.0,95,0.00,,,0.10,,2013-02-16 02:32:00,
2013-02-15 21:42:00,54.0,53.0,30.00,WNW,292,1.0,4.0,95,0.00,,,0.10,,2013-02-16 02:42:00,
2013-02-15 21:52:00,56.0,53.0,30.01,WNW,300,4.0,8.0,91,0.00,,,0.10,,2013-02-16 02:52:00,
2013-02-15 22:02:00,56.0,53.0,30.01,NNW,329,0.0,5.0,89,0.00,,,0.10,,2013-02-16 03:02:00,
2013-02-15 22:11:00,56.0,53.0,30.01,NNW,329,0.0,5.0,89,0.00,,,0.10,,2013-02-16 03:11:00,
2013-02-15 22:21:00,57.0,53.0,30.01,NNW,333,1.0,4.0,88,0.00,,,0.10,,2013-02-16 03:21:00,
2013-02-15 22:32:00,57.0,53.0,30.01,NNW,338,0.0,3.0,88,0.00,,,0.10,,2013-02-16 03:32:00,
2013-02-15 22:42:00,57.0,53.0,30.01,NNW,338,0.0,3.0,88,0.00,,,0.10,,2013-02-16 03:42:00,
2013-02-15 22:52:00,56.0,52.0,30.01,NNW,348,1.0,4.0,87,0.00,,,0.10,,2013-02-16 03:52:00,
2013-02-15 23:01:00,56.0,52.0,30.01,NNW,327,0.0,3.0,87,0.00,,,0.10,,2013-02-16 04:01:00,
2013-02-15 23:11:00,56.0,52.0,30.01,NNW,327,0.0,3.0,87,0.00,,,0.10,,2013-02-16 04:11:00,
2013-02-15 23:21:00,56.0,52.0,30.01,NW,316,0.0,5.0,86,0.00,,,0.10,,2013-02-16 04:21:00,
2013-02-15 23:32:00,56.0,52.0,30.01,North,351,1.0,4.0,85,0.00,,,0.10,,2013-02-16 04:32:00,
2013-02-15 23:42:00,56.0,52.0,30.01,North,351,1.0,4.0,85,0.00,,,0.10,,2013-02-16 04:42:00,
2013-02-15 23:52:00,56.0,52.0,30.00,NNW,342,1.0,5.0,86,0.00,,,0.10,,2013-02-16 04:52:00,